Temperature
18 18 17 17 16 16 16 15 15 15 14 14 14 13 13 13 12 12 12 12 11 11 11 11 11 10 10 10 10 10 10 10 10 10 10 11 11 11 11 11 11 12 12
19 18 17 17 16 16 16 16 15 15 15 14 14 14 13 13 13 12 12 12 12 11 11 11 11 10 10 10 10 10 10 10 9 10 10 10 10 11 11 11 11 11 12
19 18 18 17 17 17 16 16 16 15 15 15 14 14 14 13 13 13 12 12 12 11 11 11 11 10 10 10 10 10 10 10 9 9 10 10 10 10 10 10 11 11 11
19 19 18 18 17 17 17 16 16 16 15 15 15 14 14 14 13 13 12 12 12 12 11 11 11 11 10 10 10 10 10 10 9 9 9 10 10 10 10 10 10 10 11
20 19 19 18 18 17 17 17 16 16 16 15 15 15 14 14 13 13 13 12 12 12 12 11 11 11 10 10 10 10 10 9 9 9 9 9 10 10 9 9 10 10 10
20 20 19 19 18 18 17 17 17 16 16 16 15 15 15 14 14 13 13 13 12 12 12 11 11 11 11 10 10 10 10 9 9 9 9 9 9 9 9 9 9 9 9
20 20 19 19 18 18 18 17 17 17 16 16 16 15 15 15 14 13 13 13 12 12 12 11 11 11 11 10 10 10 10 9 9 9 9 9 9 9 9 9 9 9 9
20 20 19 19 19 18 18 17 17 17 16 16 16 15 15 15 14 14 13 13 12 12 12 12 11 11 11 10 10 10 10 10 9 9 9 9 9 9 9 8 8 8 9
20 19 19 19 18 18 18 17 17 17 16 16 16 15 15 15 14 14 13 13 13 13 12 12 11 11 11 10 10 10 10 10 10 9 9 9 9 9 8 8 8 8 8
19 19 19 18 18 18 17 17 17 16 16 16 15 15 15 15 14 14 13 13 13 13 13 12 12 11 11 11 10 10 10 10 10 9 9 9 9 9 8 8 8 8 8
18 18 18 17 17 17 17 16 16 16 15 15 15 15 15 14 14 14 13 13 13 13 12 12 12 12 11 11 10 10 10 10 9 9 9 9 9 9 9 8 8 8 8
17 17 17 17 16 16 16 15 15 15 15 15 14 14 14 14 14 14 13 13 12 12 12 12 12 12 11 11 10 10 10 9 9 9 9 9 9 9 9 8 8 8 8
16 16 16 15 15 15 15 14 14 14 14 14 13 13 14 14 13 13 13 13 12 12 12 12 12 12 11 11 11 10 10 9 9 9 9 9 9 9 8 8 8 8 8
14 14 14 14 14 13 13 13 13 13 13 12 12 12 12 13 13 13 13 12 12 12 12 12 12 11 11 11 11 10 10 10 9 9 9 9 9 8 8 8 8 8 8
13 13 13 13 12 12 12 12 12 12 11 11 11 11 11 11 12 12 11 12 12 12 11 11 11 11 11 11 11 10 10 10 9 9 9 8 8 8 8 8 8 8 8
12 12 12 11 11 11 11 11 11 11 11 10 10 10 10 10 11 11 11 11 11 11 11 11 11 11 11 11 11 10 10 10 9 9 9 8 8 8 8 8 8 8 8
11 11 11 11 10 10 10 10 10 10 10 10 10 10 10 10 10 10 10 10 11 11 10 11 11 11 11 11 10 10 10 10 9 9 9 8 8 8 8 8 8 8 7
10 10 10 10 10 9 9 9 9 9 9 9 9 10 9 9 9 9 9 10 10 10 10 10 10 10 10 10 10 10 9 9 9 9 8 8 8 8 8 8 8 7 7
10 10 9 9 9 9 9 8 8 8 8 8 8 9 9 9 9 9 9 9 9 9 9 9 10 10 10 9 9 9 9 9 9 8 8 8 8 8 8 8 7 7 7
9 9 9 9 9 8 8 8 7 7 7 7 7 7 7 7 8 8 8 8 8 8 8 9 9 9 9 9 9 9 9 9 8 8 8 8 8 7 7 7 7 7 7
9 9 8 8 8 8 7 7 7 6 6 6 6 6 6 6 6 6 7 7 7 7 7 8 8 8 8 8 8 8 8 8 8 8 8 8 7 7 7 7 7 7 7
8 8 8 7 7 7 6 6 6 5 5 5 5 5 6 5 5 6 6 6 6 6 7 7 7 7 8 8 8 8 7 8 7 7 7 7 7 7 7 7 7 7 7
7 7 7 6 6 6 5 5 5 4 4 4 4 4 5 5 5 5 5 5 5 6 6 7 7 7 7 7 7 7 7 7 7 7 7 7 7 7 7 7 7 7 7
7 6 6 5 5 4 4 4 4 4 4 4 4 4 4 4 4 4 5 5 5 5 6 6 6 6 6 6 6 6 6 7 7 7 7 6 6 6 6 6 6 7 7
5 5 4 4 4 3 3 3 3 3 3 3 3 3 3 3 3 4 4 4 5 5 5 6 6 6 6 6 6 6 6 6 6 6 6 6 6 6 6 6 6 6 6
4 4 3 3 3 2 2 2 2 2 2 2 2 2 3 3 3 3 3 4 4 4 5 5 5 6 6 6 6 6 6 6 6 6 6 6 6 6 6 6 6 6 6
Wind_Speed
10 9 9 8 8 7 7 7 7 6 6 6 6 5 5 5 4 4 4 4 4 4 4 4 6 4 4 3 3 4 5 5 6 5 3 3 4 5 6 7 7 7 7
11 10 9 8 8 8 8 8 7 7 7 7 6 6 6 5 5 5 5 5 5 6 6 5 6 4 5 4 4 5 5 6 6 7 4 3 4 5 5 5 6 6 7
10 10 9 9 9 10 10 8 8 8 7 7 6 7 7 6 6 6 6 6 6 7 7 7 7 5 6 5 5 6 5 5 6 6 5 3 4 4 4 4 5 5 6
11 11 11 12 12 11 10 9 9 8 8 8 8 8 8 7 7 7 7 7 7 7 7 7 7 7 8 8 6 7 6 6 5 6 6 5 5 4 4 4 5 3 4
12 12 13 11 10 9 9 9 9 9 9 8 8 8 8 7 7 8 8 8 8 8 8 8 8 10 11 9 7 7 6 6 5 6 6 5 5 4 5 3 5 5 5
13 14 11 10 10 10 10 9 9 9 9 8 9 9 9 8 11 13 10 8 8 9 9 9 8 10 11 12 13 12 10 9 8 7 7 7 9 7 5 5 4 4 5
11 10 9 10 10 11 10 9 10 10 9 9 10 9 10 11 14 14 14 10 9 10 10 9 8 8 9 8 9 10 11 13 14 11 11 11 10 8 6 6 6 7 7
9 9 8 9 10 9 9 10 10 8 8 9 10 10 10 12 15 15 15 11 10 11 11 11 11 11 10 9 8 9 9 10 11 11 11 12 11 10 8 8 8 7 8
9 9 9 10 10 9 10 11 9 8 9 9 8 10 11 13 15 16 14 8 10 12 12 12 12 12 14 13 10 10 11 10 11 14 15 15 15 14 10 6 6 6 8
7 7 6 7 8 9 10 9 7 8 10 9 10 10 12 13 14 16 14 8 10 11 10 11 14 16 15 14 11 10 12 12 9 7 8 9 10 11 12 11 10 9 9
2 2 3 5 7 8 7 6 6 7 7 8 10 10 11 13 14 16 16 10 11 11 10 10 11 15 18 17 14 12 15 12 8 8 8 8 8 8 8 9 10 10 11
2 1 1 2 4 4 4 5 5 6 7 8 8 10 9 10 13 14 17 17 15 12 12 11 11 15 16 16 13 14 16 12 8 7 8 9 9 9 9 9 10 12 13
3 3 2 2 1 1 2 3 3 4 6 7 7 9 9 8 9 16 17 18 18 14 13 15 15 15 13 12 15 15 12 9 8 9 10 11 10 10 8 7 8 9 12
5 4 3 3 2 2 2 2 3 4 5 6 7 9 9 8 8 8 9 10 13 14 13 13 15 14 12 11 10 10 9 9 9 10 10 10 8 7 8 7 7 7 7
5 4 4 3 3 3 3 3 4 5 6 7 7 8 8 10 11 13 10 9 9 9 8 7 7 7 8 9 9 9 8 8 9 10 9 9 9 8 9 7 7 7 7
5 5 4 3 3 3 4 5 6 7 11 12 13 12 10 13 17 17 17 17 16 12 7 8 10 10 11 11 10 9 8 9 9 9 9 9 9 9 8 7 7 8 9
4 4 3 4 4 4 4 5 7 8 10 12 13 14 14 16 17 17 16 15 13 9 8 11 11 11 11 10 9 9 9 9 8 8 9 9 9 8 8 8 8 9 10
4 4 4 4 4 4 5 6 6 7 9 9 10 13 15 15 16 15 13 7 6 6 9 11 11 11 10 9 9 9 9 8 8 8 8 9 9 9 9 9 9 10 10
4 4 4 5 5 5 6 6 7 8 8 9 10 11 13 13 13 12 7 5 8 9 9 10 10 9 9 9 9 9 9 8 8 7 8 9 8 9 9 9 9 11 11
4 7 7 5 6 7 7 7 8 8 9 9 10 10 10 9 9 9 6 7 8 9 9 9 9 9 8 8 8 8 8 8 8 8 8 8 8 9 10 11 10 10 10
5 7 9 7 7 7 8 8 8 9 9 9 10 11 12 10 10 10 9 8 8 9 9 9 8 8 8 8 8 8 9 8 7 7 7 8 8 8 9 9 10 10 10
5 6 6 7 7 8 8 8 9 9 10 11 10 10 12 9 8 9 9 9 9 9 8 8 8 8 7 7 7 7 8 8 7 7 7 7 7 8 8 9 9 9 9
5 7 7 7 8 9 9 9 9 9 10 10 10 10 9 9 9 9 10 10 9 9 8 7 7 6 6 6 6 6 7 7 6 6 7 7 7 7 7 9 10 10 10
6 7 8 8 9 9 9 9 9 10 10 10 10 9 9 9 10 11 10 10 9 8 7 6 6 6 7 5 4 5 5 5 5 6 8 8 8 8 8 9 10 10 10
7 7 8 8 9 9 9 9 9 10 10 10 9 9 10 10 10 10 10 9 10 9 8 6 4 4 6 5 4 4 4 4 5 5 6 7 9 10 9 10 10 10 10
7 8 8 8 8 8 9 9 9 10 10 10 9 10 10 10 10 10 9 9 9 8 7 6 5 6 5 4 3 3 3 4 5 5 5 6 8 9 9 9 11 10 11
Wind_Direction
188 189 188 191 191 187 193 202 202 203 202 204 210 214 223 230 225 220 235 240 241 250 241 233 244 238 238 235 222 218 217 213 243 267 258 271 279 287 304 309 304 300 296
189 187 192 190 186 192 204 209 203 206 209 210 211 217 228 232 228 226 239 241 240 250 251 242 250 244 239 239 230 230 229 220 230 262 271 267 262 275 285 293 299 299 292
182 186 192 193 194 201 208 208 205 208 211 212 211 220 229 233 233 232 233 241 243 247 248 244 249 242 247 244 237 241 242 237 226 244 265 261 266 273 283 286 288 290 292
182 188 197 202 202 205 206 206 208 209 210 214 217 223 229 233 235 237 236 240 245 247 244 243 245 239 244 246 245 243 243 244 238 242 259 265 265 267 262 272 285 280 289
185 195 206 205 201 203 206 210 212 212 217 218 221 228 231 232 235 232 234 238 242 249 249 246 245 244 243 240 241 242 237 242 246 248 258 263 264 260 257 255 271 283 281
191 202 204 197 199 206 211 212 213 217 219 218 222 228 232 235 234 230 226 234 239 243 251 253 253 255 255 252 249 245 233 235 243 246 254 257 263 258 255 251 258 273 282
199 203 198 198 206 213 214 212 217 220 219 222 228 229 236 239 238 239 235 231 237 241 244 251 256 253 245 251 257 260 252 240 233 237 250 255 260 253 244 251 244 245 256
203 209 205 202 212 213 211 218 222 218 218 226 231 232 237 244 240 239 239 235 240 244 243 243 246 253 249 240 249 258 260 256 246 240 242 249 251 252 242 249 258 260 262
208 214 211 207 211 210 215 222 221 218 224 226 230 230 235 245 241 238 235 235 241 247 246 242 240 247 247 234 238 251 262 266 258 244 239 245 248 247 239 242 245 249 265
221 223 212 203 209 216 222 224 220 220 231 232 237 235 236 245 244 238 229 230 241 249 250 245 237 237 241 232 230 237 250 259 260 262 253 254 255 255 242 233 239 246 256
212 198 196 204 212 220 225 225 224 227 235 238 245 246 242 244 248 243 231 225 235 244 249 249 243 231 233 234 227 231 238 244 253 255 263 267 266 260 252 239 231 232 241
92 140 214 221 231 229 224 236 234 232 242 250 253 260 256 250 247 248 238 229 229 237 244 246 242 232 229 231 229 230 235 240 248 251 257 262 264 262 258 249 237 233 237
49 38 18 13 317 278 241 248 254 242 247 257 258 264 268 261 253 246 246 242 233 234 245 242 238 235 231 236 235 232 232 234 234 243 252 257 257 258 260 257 250 241 244
49 33 30 28 1 333 306 277 262 259 259 263 265 267 271 273 269 263 256 254 246 240 245 247 243 238 234 236 239 236 229 226 228 241 251 257 258 255 254 250 254 249 252
48 36 26 17 353 336 322 287 272 260 256 262 267 267 273 278 273 266 266 265 257 249 241 240 237 233 232 234 235 236 232 227 231 238 244 252 253 253 254 245 242 242 242
37 20 9 356 346 339 330 322 293 278 286 278 267 265 269 265 274 278 275 267 260 249 229 239 239 235 234 235 235 236 233 231 231 233 236 241 247 249 253 248 239 241 247
33 5 350 346 340 334 329 323 317 312 298 290 284 280 270 272 278 280 278 276 265 230 225 238 239 236 234 232 232 233 236 235 227 226 232 237 240 244 248 251 247 244 247
4 351 343 327 322 317 312 307 303 305 310 309 302 295 292 289 288 287 285 280 263 225 231 238 240 238 235 233 231 232 237 238 229 227 231 235 235 238 244 247 246 245 247
339 327 320 313 310 306 304 304 303 302 301 302 305 305 301 299 295 289 274 252 260 255 245 243 245 244 240 236 235 232 231 234 233 229 232 233 235 236 241 245 247 246 246
319 320 323 314 312 312 309 308 307 307 305 305 304 306 311 312 308 305 290 270 266 264 257 250 247 246 243 241 239 235 234 234 234 234 237 237 236 237 242 246 248 248 246
316 318 322 319 313 309 308 306 305 304 304 304 303 304 306 306 301 300 297 288 277 270 264 257 252 246 240 238 237 235 234 236 234 235 239 241 240 241 243 246 249 248 248
315 314 316 314 313 312 309 307 307 306 306 305 306 308 308 306 303 301 299 297 291 280 269 262 256 248 239 236 233 231 233 235 235 236 241 245 246 247 247 247 247 246 246
324 322 321 317 315 312 312 311 310 309 308 309 309 309 311 310 306 304 304 302 298 294 282 264 258 256 248 240 233 227 232 237 240 240 244 248 249 251 251 251 251 251 247
333 329 324 321 319 318 316 314 314 313 312 312 313 313 313 312 312 311 311 309 306 301 293 279 269 266 258 249 238 234 237 245 251 249 249 252 254 256 255 255 256 252 251
340 334 329 325 323 322 321 320 318 318 317 318 318 317 317 317 314 314 314 315 314 311 308 301 293 284 276 265 255 256 252 250 254 259 256 254 256 256 256 257 256 257 254
344 340 335 332 330 329 327 324 324 324 322 321 320 318 319 319 319 320 320 320 321 319 316 312 310 306 298 288 286 294 282 268 260 257 255 256 255 255 255 255 257 254 256
Height
1530 1532 1534 1536 1537 1538 1539 1539 1540 1540 1541 1541 1541 1541 1541 1541 1541 1541 1540 1540 1539 1539 1538 1538 1537 1537 1536 1536 1535 1535 1534 1533 1532 1531 1531 1530 1530 1530 1529 1529 1528 1528 1529
1527 1529 1531 1533 1534 1535 1536 1537 1537 1538 1538 1539 1539 1539 1539 1539 1538 1538 1537 1537 1536 1536 1535 1535 1534 1534 1533 1533 1532 1531 1530 1530 1528 1527 1526 1526 1526 1525 1524 1524 1524 1523 1523
1523 1525 1527 1529 1530 1531 1533 1534 1534 1535 1536 1536 1536 1536 1536 1536 1535 1535 1534 1534 1533 1532 1532 1531 1531 1530 1529 1529 1528 1527 1526 1525 1524 1523 1522 1521 1521 1521 1520 1519 1519 1518 1518
1518 1520 1522 1524 1526 1528 1530 1530 1531 1532 1532 1533 1533 1533 1533 1533 1532 1531 1531 1530 1529 1528 1528 1527 1527 1526 1525 1524 1523 1522 1522 1521 1520 1518 1517 1517 1516 1516 1515 1514 1513 1513 1512
1514 1516 1518 1521 1523 1524 1526 1527 1528 1529 1529 1529 1529 1529 1529 1529 1528 1528 1527 1526 1525 1524 1524 1523 1522 1521 1520 1519 1518 1517 1517 1516 1515 1514 1513 1512 1511 1511 1510 1509 1508 1507 1506
1509 1511 1514 1517 1518 1520 1521 1523 1524 1525 1525 1525 1525 1525 1525 1524 1524 1523 1523 1521 1521 1520 1519 1518 1517 1516 1515 1514 1513 1512 1511 1510 1509 1509 1507 1506 1506 1506 1505 1504 1503 1501 1500
1504 1507 1510 1512 1514 1515 1517 1518 1519 1520 1521 1521 1521 1521 1520 1520 1519 1519 1518 1517 1515 1514 1514 1513 1512 1511 1510 1509 1508 1507 1506 1505 1504 1504 1502 1501 1501 1500 1500 1498 1497 1496 1495
1500 1502 1505 1507 1509 1511 1513 1513 1514 1515 1516 1516 1516 1516 1515 1515 1514 1513 1512 1511 1510 1509 1508 1507 1506 1505 1504 1503 1502 1501 1500 1500 1499 1498 1496 1495 1495 1494 1494 1493 1491 1489 1488
1495 1498 1500 1502 1504 1506 1507 1508 1509 1510 1510 1510 1510 1509 1509 1508 1508 1507 1506 1505 1503 1502 1502 1501 1500 1499 1498 1498 1496 1495 1494 1494 1493 1492 1491 1490 1489 1488 1487 1486 1485 1483 1481
1491 1493 1496 1497 1499 1500 1501 1502 1503 1504 1503 1503 1503 1502 1502 1501 1501 1501 1500 1498 1496 1495 1494 1494 1493 1492 1492 1491 1490 1488 1487 1487 1487 1486 1485 1483 1482 1481 1481 1479 1478 1477 1475
1488 1490 1491 1492 1493 1494 1495 1496 1497 1497 1496 1496 1496 1495 1495 1494 1493 1493 1492 1490 1488 1487 1486 1486 1485 1485 1484 1484 1483 1481 1480 1480 1479 1478 1477 1476 1475 1474 1473 1472 1471 1469 1468
1485 1486 1487 1487 1488 1488 1489 1489 1490 1489 1489 1488 1487 1487 1486 1486 1485 1484 1483 1482 1481 1479 1477 1477 1477 1477 1477 1476 1475 1474 1474 1473 1471 1470 1468 1467 1466 1465 1465 1464 1463 1461 1460
1482 1482 1482 1482 1483 1483 1483 1483 1482 1482 1481 1480 1479 1478 1477 1477 1476 1475 1474 1473 1471 1470 1468 1468 1468 1468 1468 1467 1467 1466 1466 1464 1463 1461 1459 1458 1458 1457 1456 1455 1454 1453 1452
1479 1479 1479 1479 1479 1479 1478 1477 1476 1475 1474 1473 1471 1470 1468 1467 1466 1466 1464 1463 1461 1460 1459 1459 1459 1458 1458 1458 1458 1457 1456 1455 1454 1453 1451 1450 1450 1449 1448 1447 1446 1445 1444
1478 1478 1477 1477 1476 1475 1474 1473 1471 1470 1469 1467 1465 1463 1460 1458 1457 1457 1455 1452 1451 1450 1449 1448 1448 1447 1447 1447 1447 1448 1447 1447 1445 1444 1443 1442 1441 1440 1439 1439 1438 1437 1436
1478 1477 1476 1475 1473 1471 1470 1468 1466 1465 1463 1461 1459 1456 1453 1451 1449 1447 1445 1443 1441 1441 1439 1437 1436 1436 1436 1437 1437 1438 1438 1437 1437 1436 1435 1434 1433 1432 1431 1431 1430 1429 1428
1477 1476 1474 1472 1470 1468 1465 1463 1460 1458 1457 1454 1452 1449 1446 1443 1440 1437 1435 1433 1431 1430 1428 1426 1426 1426 1426 1426 1427 1428 1428 1428 1428 1427 1426 1426 1425 1424 1424 1423 1423 1422 1420
1476 1474 1472 1470 1467 1464 1462 1458 1455 1451 1448 1445 1443 1440 1437 1434 1431 1428 1426 1423 1421 1419 1418 1416 1416 1416 1416 1416 1417 1418 1418 1419 1418 1418 1418 1418 1417 1417 1416 1416 1415 1414 1413
1474 1472 1469 1466 1463 1460 1457 1454 1450 1446 1442 1438 1435 1432 1429 1426 1422 1420 1417 1414 1412 1410 1409 1407 1407 1407 1407 1407 1408 1408 1409 1409 1409 1409 1410 1410 1410 1409 1409 1408 1407 1407 1406
1472 1469 1466 1462 1459 1455 1451 1448 1444 1440 1436 1432 1429 1425 1421 1418 1414 1411 1409 1406 1404 1401 1400 1399 1399 1398 1398 1398 1399 1400 1400 1400 1401 1401 1402 1402 1402 1401 1401 1400 1400 1399 1398
1468 1465 1461 1458 1454 1450 1446 1442 1438 1434 1430 1426 1423 1419 1416 1411 1407 1404 1401 1399 1396 1394 1392 1391 1391 1390 1390 1391 1391 1391 1392 1392 1393 1393 1394 1394 1394 1394 1393 1392 1392 1391 1390
1463 1460 1456 1452 1448 1444 1440 1436 1432 1428 1424 1420 1416 1412 1409 1406 1402 1398 1395 1392 1389 1387 1385 1384 1383 1382 1383 1384 1384 1384 1384 1385 1385 1386 1386 1386 1386 1386 1385 1385 1384 1384 1383
1458 1454 1450 1446 1442 1438 1434 1430 1426 1422 1418 1414 1410 1406 1403 1399 1396 1392 1389 1385 1382 1380 1378 1377 1376 1376 1376 1377 1377 1378 1378 1378 1379 1379 1379 1379 1379 1378 1378 1377 1377 1376 1376
1453 1449 1445 1440 1436 1432 1428 1424 1421 1417 1413 1409 1405 1401 1398 1394 1390 1387 1383 1379 1377 1374 1372 1371 1370 1370 1371 1371 1371 1372 1372 1372 1373 1372 1372 1372 1371 1370 1370 1369 1369 1369 1368
1448 1444 1440 1436 1432 1427 1423 1419 1416 1412 1408 1404 1400 1396 1393 1389 1385 1381 1378 1375 1372 1369 1368 1366 1366 1365 1365 1366 1366 1366 1366 1366 1366 1365 1365 1364 1363 1363 1362 1361 1361 1361 1361
1444 1440 1436 1432 1428 1423 1419 1415 1411 1408 1404 1400 1396 1392 1388 1384 1381 1377 1374 1370 1368 1365 1364 1362 1361 1361 1361 1361 1361 1361 1361 1360 1359 1358 1357 1356 1355 1355 1354 1353 1353 1353 1353